Year,Month,Day,Hour,Minute,Value (Times are PST for temperature in C)
2015,06,16,00,00,20.80
2015,06,16,00,01,20.80
2015,06,16,00,02,20.70
2015,06,16,00,03,20.60
2015,06,16,00,04,20.60
2015,06,16,00,05,20.50
2015,06,16,00,06,20.50
2015,06,16,00,07,20.50
2015,06,16,00,08,20.50
2015,06,16,00,09,20.60
2015,06,16,00,10,20.60
2015,06,16,00,11,20.70
2015,06,16,00,12,20.70
2015,06,16,00,13,20.80
2015,06,16,00,14,20.80
2015,06,16,00,15,20.80
2015,06,16,00,16,20.80
2015,06,16,00,17,20.80
2015,06,16,00,18,20.80
2015,06,16,00,19,20.70
2015,06,16,00,20,20.70
2015,06,16,00,21,20.60
2015,06,16,00,22,20.60
2015,06,16,00,23,20.50
2015,06,16,00,24,20.50
2015,06,16,00,25,20.50
2015,06,16,00,26,20.50
2015,06,16,00,27,20.50
2015,06,16,00,28,20.50
2015,06,16,00,29,20.50
2015,06,16,00,30,20.50
2015,06,16,00,31,20.50
2015,06,16,00,32,20.40
2015,06,16,00,33,20.40
2015,06,16,00,34,20.40
2015,06,16,00,35,20.40
2015,06,16,00,36,20.40
2015,06,16,00,37,20.40
2015,06,16,00,38,20.40
2015,06,16,00,39,20.40
2015,06,16,00,40,20.40
2015,06,16,00,41,20.40
2015,06,16,00,42,20.40
2015,06,16,00,43,20.40
2015,06,16,00,44,20.30
2015,06,16,00,45,20.30
2015,06,16,00,46,20.30
2015,06,16,00,47,20.30
2015,06,16,00,48,20.30
2015,06,16,00,49,20.30
2015,06,16,00,50,20.30
2015,06,16,00,51,20.30
2015,06,16,00,52,20.40
2015,06,16,00,53,20.40
2015,06,16,00,54,20.40
2015,06,16,00,55,20.50
2015,06,16,00,56,20.50
2015,06,16,00,57,20.50
2015,06,16,00,58,20.60
2015,06,16,00,59,20.70
2015,06,16,01,00,20.70
2015,06,16,01,01,20.80
2015,06,16,01,02,20.80
2015,06,16,01,03,20.80
2015,06,16,01,04,20.90
2015,06,16,01,05,20.90
2015,06,16,01,06,20.90
2015,06,16,01,07,20.90
2015,06,16,01,08,20.90
2015,06,16,01,09,20.90
2015,06,16,01,10,20.90
2015,06,16,01,11,20.90
2015,06,16,01,12,20.90
2015,06,16,01,13,20.90
2015,06,16,01,14,20.90
2015,06,16,01,15,20.90
2015,06,16,01,16,20.90
2015,06,16,01,17,20.90
2015,06,16,01,18,20.90
2015,06,16,01,19,20.90
2015,06,16,01,20,20.90
2015,06,16,01,21,20.90
2015,06,16,01,22,20.90
2015,06,16,01,23,20.90
2015,06,16,01,24,20.80
2015,06,16,01,25,20.80
2015,06,16,01,26,20.70
2015,06,16,01,27,20.50
2015,06,16,01,28,20.30
2015,06,16,01,29,20.00
2015,06,16,01,30,19.80
2015,06,16,01,31,19.60
2015,06,16,01,32,19.40
2015,06,16,01,33,19.30
2015,06,16,01,34,19.20
2015,06,16,01,35,19.10
2015,06,16,01,36,18.90
2015,06,16,01,37,18.80
2015,06,16,01,38,18.80
2015,06,16,01,39,18.70
2015,06,16,01,40,18.70
2015,06,16,01,41,18.70
2015,06,16,01,42,18.70
2015,06,16,01,43,18.70
2015,06,16,01,44,18.70
2015,06,16,01,45,18.70
2015,06,16,01,46,18.70
2015,06,16,01,47,18.70
2015,06,16,01,48,18.80
2015,06,16,01,49,18.80
2015,06,16,01,50,18.80
2015,06,16,01,51,18.90
2015,06,16,01,52,18.90
2015,06,16,01,53,18.90
2015,06,16,01,54,18.90
2015,06,16,01,55,18.90
2015,06,16,01,56,19.00
2015,06,16,01,57,19.00
2015,06,16,01,58,19.00
2015,06,16,01,59,19.10
2015,06,16,02,00,19.10
2015,06,16,02,01,19.20
2015,06,16,02,02,19.20
2015,06,16,02,03,19.20
2015,06,16,02,04,19.20
2015,06,16,02,05,19.20
2015,06,16,02,06,19.20
2015,06,16,02,07,19.30
2015,06,16,02,08,19.30
2015,06,16,02,09,19.20
2015,06,16,02,10,19.20
2015,06,16,02,11,19.20
2015,06,16,02,12,19.20
2015,06,16,02,13,19.20
2015,06,16,02,14,19.20
2015,06,16,02,15,19.20
2015,06,16,02,16,19.10
2015,06,16,02,17,19.10
2015,06,16,02,18,19.10
2015,06,16,02,19,19.10
2015,06,16,02,20,19.00
2015,06,16,02,21,19.00
2015,06,16,02,22,19.00
2015,06,16,02,23,18.90
2015,06,16,02,24,18.90
2015,06,16,02,25,18.90
2015,06,16,02,26,18.90
2015,06,16,02,27,19.00
2015,06,16,02,28,19.00
2015,06,16,02,29,19.10
2015,06,16,02,30,19.20
2015,06,16,02,31,19.20
2015,06,16,02,32,19.20
2015,06,16,02,33,19.30
2015,06,16,02,34,19.30
2015,06,16,02,35,19.30
2015,06,16,02,36,19.30
2015,06,16,02,37,19.30
2015,06,16,02,38,19.30
2015,06,16,02,39,19.30
2015,06,16,02,40,19.30
2015,06,16,02,41,19.30
2015,06,16,02,42,19.30
2015,06,16,02,43,19.30
2015,06,16,02,44,19.30
2015,06,16,02,45,19.20
2015,06,16,02,46,19.20
2015,06,16,02,47,19.20
2015,06,16,02,48,19.10
2015,06,16,02,49,19.10
2015,06,16,02,50,19.10
2015,06,16,02,51,19.00
2015,06,16,02,52,18.90
2015,06,16,02,53,18.80
2015,06,16,02,54,18.70
2015,06,16,02,55,18.70
2015,06,16,02,56,18.60
2015,06,16,02,57,18.60
2015,06,16,02,58,18.50
2015,06,16,02,59,18.50
2015,06,16,03,00,18.50
2015,06,16,03,01,18.50
2015,06,16,03,02,18.50
2015,06,16,03,03,18.40
2015,06,16,03,04,18.40
2015,06,16,03,05,18.40
2015,06,16,03,06,18.40
2015,06,16,03,07,18.30
2015,06,16,03,08,18.30
2015,06,16,03,09,18.30
2015,06,16,03,10,18.30
2015,06,16,03,11,18.20
2015,06,16,03,12,18.20
2015,06,16,03,13,18.20
2015,06,16,03,14,18.20
2015,06,16,03,15,18.20
2015,06,16,03,16,18.20
2015,06,16,03,17,18.20
2015,06,16,03,18,18.20
2015,06,16,03,19,18.20
2015,06,16,03,20,18.20
2015,06,16,03,21,18.20
2015,06,16,03,22,18.20
2015,06,16,03,23,18.20
2015,06,16,03,24,18.30
2015,06,16,03,25,18.30
2015,06,16,03,26,18.30
2015,06,16,03,27,18.40
2015,06,16,03,28,18.50
2015,06,16,03,29,18.50
2015,06,16,03,30,18.60
2015,06,16,03,31,18.60
2015,06,16,03,32,18.60
2015,06,16,03,33,18.60
2015,06,16,03,34,18.60
2015,06,16,03,35,18.60
2015,06,16,03,36,18.60
2015,06,16,03,37,18.50
2015,06,16,03,38,18.50
2015,06,16,03,39,18.40
2015,06,16,03,40,18.40
2015,06,16,03,41,18.40
2015,06,16,03,42,18.40
2015,06,16,03,43,18.40
2015,06,16,03,44,18.40
2015,06,16,03,45,18.30
2015,06,16,03,46,18.30
2015,06,16,03,47,18.30
2015,06,16,03,48,18.30
2015,06,16,03,49,18.30
2015,06,16,03,50,18.30
2015,06,16,03,51,18.30
2015,06,16,03,52,18.30
2015,06,16,03,53,18.30
2015,06,16,03,54,18.20
2015,06,16,03,55,18.20
2015,06,16,03,56,18.20
2015,06,16,03,57,18.20
2015,06,16,03,58,18.10
2015,06,16,03,59,18.10
2015,06,16,04,00,18.10
2015,06,16,04,01,18.00
2015,06,16,04,02,18.00
2015,06,16,04,03,17.90
2015,06,16,04,04,17.90
2015,06,16,04,05,17.90
2015,06,16,04,06,17.90
2015,06,16,04,07,17.90
2015,06,16,04,08,17.80
2015,06,16,04,09,17.80
2015,06,16,04,10,17.80
2015,06,16,04,11,17.80
2015,06,16,04,12,17.80
2015,06,16,04,13,17.70
2015,06,16,04,14,17.70
2015,06,16,04,15,17.70
2015,06,16,04,16,17.60
2015,06,16,04,17,17.60
2015,06,16,04,18,17.60
2015,06,16,04,19,17.60
2015,06,16,04,20,17.60
2015,06,16,04,21,17.60
2015,06,16,04,22,17.60
2015,06,16,04,23,17.60
2015,06,16,04,24,17.60
2015,06,16,04,25,17.60
2015,06,16,04,26,17.50
2015,06,16,04,27,17.50
2015,06,16,04,28,17.50
2015,06,16,04,29,17.40
2015,06,16,04,30,17.40
2015,06,16,04,31,17.40
2015,06,16,04,32,17.40
2015,06,16,04,33,17.40
2015,06,16,04,34,17.40
2015,06,16,04,35,17.40
2015,06,16,04,36,17.30
2015,06,16,04,37,17.30
2015,06,16,04,38,17.30
2015,06,16,04,39,17.30
2015,06,16,04,40,17.30
2015,06,16,04,41,17.30
2015,06,16,04,42,17.30
2015,06,16,04,43,17.30
2015,06,16,04,44,17.30
2015,06,16,04,45,17.30
2015,06,16,04,46,17.30
2015,06,16,04,47,17.30
2015,06,16,04,48,17.30
2015,06,16,04,49,17.20
2015,06,16,04,50,17.20
2015,06,16,04,51,17.20
2015,06,16,04,52,17.20
2015,06,16,04,53,17.10
2015,06,16,04,54,16.90
2015,06,16,04,55,16.80
2015,06,16,04,56,16.70
2015,06,16,04,57,16.60
2015,06,16,04,58,16.50
2015,06,16,04,59,16.50
2015,06,16,05,00,16.40
2015,06,16,05,01,16.30
2015,06,16,05,02,16.30
2015,06,16,05,03,16.20
2015,06,16,05,04,16.20
2015,06,16,05,05,16.10
2015,06,16,05,06,16.10
2015,06,16,05,07,16.10
2015,06,16,05,08,16.10
2015,06,16,05,09,16.10
2015,06,16,05,10,16.10
2015,06,16,05,11,16.10
2015,06,16,05,12,16.10
2015,06,16,05,13,16.10
2015,06,16,05,14,16.10
2015,06,16,05,15,16.10
2015,06,16,05,16,16.00
2015,06,16,05,17,16.00
2015,06,16,05,18,15.90
2015,06,16,05,19,15.90
2015,06,16,05,20,15.80
2015,06,16,05,21,15.80
2015,06,16,05,22,15.70
2015,06,16,05,23,15.60
2015,06,16,05,24,15.60
2015,06,16,05,25,15.60
2015,06,16,05,26,15.50
2015,06,16,05,27,15.50
2015,06,16,05,28,15.50
2015,06,16,05,29,15.50
2015,06,16,05,30,15.50
2015,06,16,05,31,15.50
2015,06,16,05,32,15.50
2015,06,16,05,33,15.50
2015,06,16,05,34,15.50
2015,06,16,05,35,15.50
2015,06,16,05,36,15.50
2015,06,16,05,37,15.50
2015,06,16,05,38,15.50
2015,06,16,05,39,15.50
2015,06,16,05,40,15.60
2015,06,16,05,41,15.60
2015,06,16,05,42,15.60
2015,06,16,05,43,15.60
2015,06,16,05,44,15.60
2015,06,16,05,45,15.60
2015,06,16,05,46,15.70
2015,06,16,05,47,15.70
2015,06,16,05,48,15.70
2015,06,16,05,49,15.70
2015,06,16,05,50,15.70
2015,06,16,05,51,15.70
2015,06,16,05,52,15.80
2015,06,16,05,53,15.80
2015,06,16,05,54,15.80
2015,06,16,05,55,15.80
2015,06,16,05,56,15.80
2015,06,16,05,57,15.80
2015,06,16,05,58,15.80
2015,06,16,05,59,15.80
2015,06,16,06,00,15.80
2015,06,16,06,01,15.80
2015,06,16,06,02,15.80
2015,06,16,06,03,15.90
2015,06,16,06,04,15.90
2015,06,16,06,05,15.90
2015,06,16,06,06,15.90
2015,06,16,06,07,15.90
2015,06,16,06,08,15.90
2015,06,16,06,09,15.90
2015,06,16,06,10,15.90
2015,06,16,06,11,15.90
2015,06,16,06,12,15.90
2015,06,16,06,13,15.90
2015,06,16,06,14,15.90
2015,06,16,06,15,15.90
2015,06,16,06,16,15.90
2015,06,16,06,17,15.90
2015,06,16,06,18,15.90
2015,06,16,06,19,15.90
2015,06,16,06,20,15.90
2015,06,16,06,21,15.90
2015,06,16,06,22,15.90
2015,06,16,06,23,15.90
2015,06,16,06,24,15.90
2015,06,16,06,25,15.90
2015,06,16,06,26,15.90
2015,06,16,06,27,15.80
2015,06,16,06,28,15.80
2015,06,16,06,29,15.70
2015,06,16,06,30,15.70
2015,06,16,06,31,15.70
2015,06,16,06,32,15.60
2015,06,16,06,33,15.60
2015,06,16,06,34,15.60
2015,06,16,06,35,15.50
2015,06,16,06,36,15.50
2015,06,16,06,37,15.50
2015,06,16,06,38,15.50
2015,06,16,06,39,15.50
2015,06,16,06,40,15.50
2015,06,16,06,41,15.40
2015,06,16,06,42,15.40
2015,06,16,06,43,15.40
2015,06,16,06,44,15.40
2015,06,16,06,45,15.40
2015,06,16,06,46,15.40
2015,06,16,06,47,15.40
2015,06,16,06,48,15.50
2015,06,16,06,49,15.50
2015,06,16,06,50,15.60
2015,06,16,06,51,15.60
2015,06,16,06,52,15.70
2015,06,16,06,53,15.70
2015,06,16,06,54,15.80
2015,06,16,06,55,15.80
2015,06,16,06,56,15.80
2015,06,16,06,57,15.90
2015,06,16,06,58,15.90
2015,06,16,06,59,15.90
2015,06,16,07,00,16.00
2015,06,16,07,01,16.00
2015,06,16,07,02,16.00
2015,06,16,07,03,16.10
2015,06,16,07,04,16.10
2015,06,16,07,05,16.20
2015,06,16,07,06,16.20
2015,06,16,07,07,16.20
2015,06,16,07,08,16.10
2015,06,16,07,09,16.10
2015,06,16,07,10,16.10
2015,06,16,07,11,16.10
2015,06,16,07,12,16.10
2015,06,16,07,13,16.10
2015,06,16,07,14,16.10
2015,06,16,07,15,16.20
2015,06,16,07,16,16.20
2015,06,16,07,17,16.30
2015,06,16,07,18,16.30
2015,06,16,07,19,16.30
2015,06,16,07,20,16.40
2015,06,16,07,21,16.50
2015,06,16,07,22,16.50
2015,06,16,07,23,16.60
2015,06,16,07,24,16.60
2015,06,16,07,25,16.70
2015,06,16,07,26,16.70
2015,06,16,07,27,16.80
2015,06,16,07,28,16.80
2015,06,16,07,29,16.80
2015,06,16,07,30,16.80
2015,06,16,07,31,16.90
2015,06,16,07,32,16.90
2015,06,16,07,33,16.90
2015,06,16,07,34,16.90
2015,06,16,07,35,16.90
2015,06,16,07,36,17.00
2015,06,16,07,37,16.90
2015,06,16,07,38,16.90
2015,06,16,07,39,16.90
2015,06,16,07,40,16.90
2015,06,16,07,41,16.90
2015,06,16,07,42,17.00
2015,06,16,07,43,17.00
2015,06,16,07,44,17.10
2015,06,16,07,45,17.20
2015,06,16,07,46,17.20
2015,06,16,07,47,17.30
2015,06,16,07,48,17.30
2015,06,16,07,49,17.40
2015,06,16,07,50,17.50
2015,06,16,07,51,17.60
2015,06,16,07,52,17.60
2015,06,16,07,53,17.70
2015,06,16,07,54,17.70
2015,06,16,07,55,17.70
2015,06,16,07,56,17.80
2015,06,16,07,57,17.80
2015,06,16,07,58,17.80
2015,06,16,07,59,17.70
2015,06,16,08,00,17.70
2015,06,16,08,01,17.70
2015,06,16,08,02,17.70
2015,06,16,08,03,17.70
2015,06,16,08,04,17.70
2015,06,16,08,05,17.80
2015,06,16,08,06,17.80
2015,06,16,08,07,17.90
2015,06,16,08,08,17.90
2015,06,16,08,09,18.00
2015,06,16,08,10,18.10
2015,06,16,08,11,18.20
2015,06,16,08,12,18.30
2015,06,16,08,13,18.40
2015,06,16,08,14,18.40
2015,06,16,08,15,18.30
2015,06,16,08,16,18.30
2015,06,16,08,17,18.30
2015,06,16,08,18,18.40
2015,06,16,08,19,18.40
2015,06,16,08,20,18.50
2015,06,16,08,21,18.50
2015,06,16,08,22,18.60
2015,06,16,08,23,18.60
2015,06,16,08,24,18.60
2015,06,16,08,25,18.50
2015,06,16,08,26,18.40
2015,06,16,08,27,18.40
2015,06,16,08,28,18.50
2015,06,16,08,29,18.50
2015,06,16,08,30,18.60
2015,06,16,08,31,18.60
2015,06,16,08,32,18.60
2015,06,16,08,33,18.60
2015,06,16,08,34,18.50
2015,06,16,08,35,18.50
2015,06,16,08,36,18.40
2015,06,16,08,37,18.30
2015,06,16,08,38,18.20
2015,06,16,08,39,18.10
2015,06,16,08,40,18.10
2015,06,16,08,41,18.20
2015,06,16,08,42,18.20
2015,06,16,08,43,18.20
2015,06,16,08,44,18.30
2015,06,16,08,45,18.30
2015,06,16,08,46,18.40
2015,06,16,08,47,18.20
2015,06,16,08,48,18.10
2015,06,16,08,49,18.00
2015,06,16,08,50,17.90
2015,06,16,08,51,17.90
2015,06,16,08,52,18.00
2015,06,16,08,53,18.00
2015,06,16,08,54,18.10
2015,06,16,08,55,18.10
2015,06,16,08,56,18.10
2015,06,16,08,57,18.00
2015,06,16,08,58,17.90
2015,06,16,08,59,17.90
2015,06,16,09,00,17.90
2015,06,16,09,01,17.90
2015,06,16,09,02,18.00
2015,06,16,09,03,18.00
2015,06,16,09,04,17.90
2015,06,16,09,05,17.90
2015,06,16,09,06,17.80
2015,06,16,09,07,17.80
2015,06,16,09,08,17.90
2015,06,16,09,09,18.10
2015,06,16,09,10,18.20
2015,06,16,09,11,18.10
2015,06,16,09,12,18.00
2015,06,16,09,13,17.90
2015,06,16,09,14,17.80
2015,06,16,09,15,17.90
2015,06,16,09,16,17.90
2015,06,16,09,17,18.00
2015,06,16,09,18,18.10
2015,06,16,09,19,18.10
2015,06,16,09,20,18.20
2015,06,16,09,21,18.20
2015,06,16,09,22,18.30
2015,06,16,09,23,18.30
2015,06,16,09,24,18.30
2015,06,16,09,25,18.20
2015,06,16,09,26,18.20
2015,06,16,09,27,18.20
2015,06,16,09,28,18.30
2015,06,16,09,29,18.30
2015,06,16,09,30,18.30
2015,06,16,09,31,18.20
2015,06,16,09,32,18.20
2015,06,16,09,33,18.20
2015,06,16,09,34,18.20
2015,06,16,09,35,18.10
2015,06,16,09,36,18.10
2015,06,16,09,37,18.10
2015,06,16,09,38,18.20
2015,06,16,09,39,18.20
2015,06,16,09,40,18.20
2015,06,16,09,41,18.20
2015,06,16,09,42,18.20
2015,06,16,09,43,18.30
2015,06,16,09,44,18.20
2015,06,16,09,45,18.20
2015,06,16,09,46,18.20
2015,06,16,09,47,18.20
2015,06,16,09,48,18.10
2015,06,16,09,49,18.00
2015,06,16,09,50,17.90
2015,06,16,09,51,17.80
2015,06,16,09,52,17.60
2015,06,16,09,53,17.50
2015,06,16,09,54,17.40
2015,06,16,09,55,17.40
2015,06,16,09,56,17.40
2015,06,16,09,57,17.40
2015,06,16,09,58,17.30
2015,06,16,09,59,17.30
2015,06,16,10,00,17.30
2015,06,16,10,01,17.30
2015,06,16,10,02,17.30
2015,06,16,10,03,17.30
2015,06,16,10,04,17.30
2015,06,16,10,05,17.40
2015,06,16,10,06,17.40
2015,06,16,10,07,17.40
2015,06,16,10,08,17.50
2015,06,16,10,09,17.50
2015,06,16,10,10,17.60
2015,06,16,10,11,17.60
2015,06,16,10,12,17.70
2015,06,16,10,13,17.80
2015,06,16,10,14,17.80
2015,06,16,10,15,17.70
2015,06,16,10,16,17.60
2015,06,16,10,17,17.50
2015,06,16,10,18,17.50
2015,06,16,10,19,17.50
2015,06,16,10,20,17.40
2015,06,16,10,21,17.30
2015,06,16,10,22,17.40
2015,06,16,10,23,17.50
2015,06,16,10,24,17.60
2015,06,16,10,25,17.70
2015,06,16,10,26,17.80
2015,06,16,10,27,18.00
2015,06,16,10,28,18.10
2015,06,16,10,29,18.20
2015,06,16,10,30,18.20
2015,06,16,10,31,18.30
2015,06,16,10,32,18.40
2015,06,16,10,33,18.40
2015,06,16,10,34,18.40
2015,06,16,10,35,18.30
2015,06,16,10,36,18.20
2015,06,16,10,37,18.20
2015,06,16,10,38,18.20
2015,06,16,10,39,18.20
2015,06,16,10,40,18.30
2015,06,16,10,41,18.40
2015,06,16,10,42,18.60
2015,06,16,10,43,18.80
2015,06,16,10,44,18.90
2015,06,16,10,45,19.00
2015,06,16,10,46,19.10
2015,06,16,10,47,19.00
2015,06,16,10,48,18.90
2015,06,16,10,49,18.90
2015,06,16,10,50,18.90
2015,06,16,10,51,18.90
2015,06,16,10,52,18.90
2015,06,16,10,53,19.00
2015,06,16,10,54,19.00
2015,06,16,10,55,19.00
2015,06,16,10,56,19.00
2015,06,16,10,57,19.00
2015,06,16,10,58,18.90
2015,06,16,10,59,18.90
2015,06,16,11,00,18.90
2015,06,16,11,01,18.90
2015,06,16,11,02,18.80
2015,06,16,11,03,18.80
2015,06,16,11,04,18.80
2015,06,16,11,05,18.90
2015,06,16,11,06,19.00
2015,06,16,11,07,19.10
2015,06,16,11,08,19.10
2015,06,16,11,09,19.10
2015,06,16,11,10,19.10
2015,06,16,11,11,19.10
2015,06,16,11,12,19.20
2015,06,16,11,13,19.20
2015,06,16,11,14,19.30
2015,06,16,11,15,19.30
2015,06,16,11,16,19.50
2015,06,16,11,17,19.60
2015,06,16,11,18,19.70
2015,06,16,11,19,19.70
2015,06,16,11,20,19.60
2015,06,16,11,21,19.40
2015,06,16,11,22,19.30
2015,06,16,11,23,19.10
2015,06,16,11,24,19.00
2015,06,16,11,25,18.80
2015,06,16,11,26,18.70
2015,06,16,11,27,18.50
2015,06,16,11,28,18.40
2015,06,16,11,29,18.40
2015,06,16,11,30,18.40
2015,06,16,11,31,18.50
2015,06,16,11,32,18.60
2015,06,16,11,33,18.70
2015,06,16,11,34,18.80
2015,06,16,11,35,18.80
2015,06,16,11,36,18.90
2015,06,16,11,37,18.90
2015,06,16,11,38,18.90
2015,06,16,11,39,18.80
2015,06,16,11,40,18.60
2015,06,16,11,41,18.60
2015,06,16,11,42,18.60
2015,06,16,11,43,18.60
2015,06,16,11,44,18.60
2015,06,16,11,45,18.50
2015,06,16,11,46,18.40
2015,06,16,11,47,18.40
2015,06,16,11,48,18.40
2015,06,16,11,49,18.50
2015,06,16,11,50,18.60
2015,06,16,11,51,18.70
2015,06,16,11,52,18.80
2015,06,16,11,53,18.90
2015,06,16,11,54,19.00
2015,06,16,11,55,18.90
2015,06,16,11,56,18.80
2015,06,16,11,57,18.80
2015,06,16,11,58,18.80
2015,06,16,11,59,18.90
2015,06,16,12,00,19.00
2015,06,16,12,01,19.00
2015,06,16,12,02,19.10
2015,06,16,12,03,19.10
2015,06,16,12,04,19.00
2015,06,16,12,05,19.00
2015,06,16,12,06,18.90
2015,06,16,12,07,18.80
2015,06,16,12,08,18.80
2015,06,16,12,09,18.90
2015,06,16,12,10,18.90
2015,06,16,12,11,18.90
2015,06,16,12,12,18.90
2015,06,16,12,13,19.00
2015,06,16,12,14,18.90
2015,06,16,12,15,19.00
2015,06,16,12,16,19.00
2015,06,16,12,17,19.10
2015,06,16,12,18,19.20
2015,06,16,12,19,19.20
2015,06,16,12,20,19.30
2015,06,16,12,21,19.30
2015,06,16,12,22,19.30
2015,06,16,12,23,19.30
2015,06,16,12,24,19.30
2015,06,16,12,25,19.40
2015,06,16,12,26,19.50
2015,06,16,12,27,19.50
2015,06,16,12,28,19.50
2015,06,16,12,29,19.70
2015,06,16,12,30,19.80
2015,06,16,12,31,19.90
2015,06,16,12,32,20.10
2015,06,16,12,33,20.10
2015,06,16,12,34,20.00
2015,06,16,12,35,19.90
2015,06,16,12,36,19.90
2015,06,16,12,37,19.80
2015,06,16,12,38,19.80
2015,06,16,12,39,19.70
2015,06,16,12,40,19.60
2015,06,16,12,41,19.60
2015,06,16,12,42,19.60
2015,06,16,12,43,19.50
2015,06,16,12,44,19.60
2015,06,16,12,45,19.70
2015,06,16,12,46,19.70
2015,06,16,12,47,19.80
2015,06,16,12,48,19.80
2015,06,16,12,49,19.80
2015,06,16,12,50,19.80
2015,06,16,12,51,19.90
2015,06,16,12,52,19.90
2015,06,16,12,53,19.90
2015,06,16,12,54,20.00
2015,06,16,12,55,20.10
2015,06,16,12,56,20.20
2015,06,16,12,57,20.20
2015,06,16,12,58,20.10
2015,06,16,12,59,20.00
2015,06,16,13,00,19.80
2015,06,16,13,01,19.70
2015,06,16,13,02,19.70
2015,06,16,13,03,19.60
2015,06,16,13,04,19.40
2015,06,16,13,05,19.30
2015,06,16,13,06,19.30
2015,06,16,13,07,19.40
2015,06,16,13,08,19.60
2015,06,16,13,09,19.70
2015,06,16,13,10,19.70
2015,06,16,13,11,19.80
2015,06,16,13,12,19.80
2015,06,16,13,13,19.80
2015,06,16,13,14,19.80
2015,06,16,13,15,19.80
2015,06,16,13,16,19.80
2015,06,16,13,17,19.80
2015,06,16,13,18,19.90
2015,06,16,13,19,20.00
2015,06,16,13,20,20.10
2015,06,16,13,21,20.20
2015,06,16,13,22,20.20
2015,06,16,13,23,20.20
2015,06,16,13,24,20.20
2015,06,16,13,25,20.30
2015,06,16,13,26,20.30
2015,06,16,13,27,20.30
2015,06,16,13,28,20.30
2015,06,16,13,29,20.30
2015,06,16,13,30,20.30
2015,06,16,13,31,20.30
2015,06,16,13,32,20.40
2015,06,16,13,33,20.50
2015,06,16,13,34,20.60
2015,06,16,13,35,20.70
2015,06,16,13,36,20.70
2015,06,16,13,37,20.70
2015,06,16,13,38,20.80
2015,06,16,13,39,20.90
2015,06,16,13,40,21.00
2015,06,16,13,41,21.10
2015,06,16,13,42,21.10
2015,06,16,13,43,20.90
2015,06,16,13,44,20.80
2015,06,16,13,45,20.70
2015,06,16,13,46,20.60
2015,06,16,13,47,20.60
2015,06,16,13,48,20.70
2015,06,16,13,49,20.70
2015,06,16,13,50,20.70
2015,06,16,13,51,20.70
2015,06,16,13,52,20.80
2015,06,16,13,53,20.80
2015,06,16,13,54,20.90
2015,06,16,13,55,20.90
2015,06,16,13,56,20.90
2015,06,16,13,57,20.80
2015,06,16,13,58,20.80
2015,06,16,13,59,20.90
2015,06,16,14,00,20.90
2015,06,16,14,01,20.90
2015,06,16,14,02,20.80
2015,06,16,14,03,20.80
2015,06,16,14,04,20.80
2015,06,16,14,05,20.90
2015,06,16,14,06,20.80
2015,06,16,14,07,20.80
2015,06,16,14,08,20.80
2015,06,16,14,09,20.80
2015,06,16,14,10,20.90
2015,06,16,14,11,20.90
2015,06,16,14,12,21.00
2015,06,16,14,13,21.10
2015,06,16,14,14,21.10
2015,06,16,14,15,21.10
2015,06,16,14,16,21.10
2015,06,16,14,17,21.10
2015,06,16,14,18,21.10
2015,06,16,14,19,21.00
2015,06,16,14,20,20.90
2015,06,16,14,21,20.80
2015,06,16,14,22,20.70
2015,06,16,14,23,20.60
2015,06,16,14,24,20.60
2015,06,16,14,25,20.60
2015,06,16,14,26,20.60
2015,06,16,14,27,20.60
2015,06,16,14,28,20.70
2015,06,16,14,29,20.70
2015,06,16,14,30,20.90
2015,06,16,14,31,20.90
2015,06,16,14,32,20.90
2015,06,16,14,33,21.00
2015,06,16,14,34,21.10
2015,06,16,14,35,21.20
2015,06,16,14,36,21.30
2015,06,16,14,37,21.40
2015,06,16,14,38,21.40
2015,06,16,14,39,21.50
2015,06,16,14,40,21.60
2015,06,16,14,41,21.60
2015,06,16,14,42,21.50
2015,06,16,14,43,21.40
2015,06,16,14,44,21.20
2015,06,16,14,45,21.20
2015,06,16,14,46,21.10
2015,06,16,14,47,21.10
2015,06,16,14,48,21.20
2015,06,16,14,49,21.30
2015,06,16,14,50,21.40
2015,06,16,14,51,21.40
2015,06,16,14,52,21.40
2015,06,16,14,53,21.50
2015,06,16,14,54,21.60
2015,06,16,14,55,21.70
2015,06,16,14,56,21.60
2015,06,16,14,57,21.60
2015,06,16,14,58,21.60
2015,06,16,14,59,21.60
2015,06,16,15,00,21.60
2015,06,16,15,01,21.60
2015,06,16,15,02,21.60
2015,06,16,15,03,21.70
2015,06,16,15,04,21.60
2015,06,16,15,05,21.60
2015,06,16,15,06,21.70
2015,06,16,15,07,21.70
2015,06,16,15,08,21.70
2015,06,16,15,09,21.70
2015,06,16,15,10,21.60
2015,06,16,15,11,21.70
2015,06,16,15,12,21.80
2015,06,16,15,13,21.70
2015,06,16,15,14,21.70
2015,06,16,15,15,21.80
2015,06,16,15,16,21.80
2015,06,16,15,17,21.90
2015,06,16,15,18,22.00
2015,06,16,15,19,22.10
2015,06,16,15,20,22.20
2015,06,16,15,21,22.40
2015,06,16,15,22,22.40
2015,06,16,15,23,22.30
2015,06,16,15,24,22.20
2015,06,16,15,25,22.10
2015,06,16,15,26,22.10
2015,06,16,15,27,22.00
2015,06,16,15,28,22.10
2015,06,16,15,29,22.10
2015,06,16,15,30,22.10
2015,06,16,15,31,22.10
2015,06,16,15,32,22.20
2015,06,16,15,33,22.20
2015,06,16,15,34,22.30
2015,06,16,15,35,22.40
2015,06,16,15,36,22.40
2015,06,16,15,37,22.40
2015,06,16,15,38,22.30
2015,06,16,15,39,22.10
2015,06,16,15,40,21.90
2015,06,16,15,41,21.80
2015,06,16,15,42,21.80
2015,06,16,15,43,21.90
2015,06,16,15,44,22.10
2015,06,16,15,45,22.30
2015,06,16,15,46,22.40
2015,06,16,15,47,22.40
2015,06,16,15,48,22.40
2015,06,16,15,49,22.40
2015,06,16,15,50,22.30
2015,06,16,15,51,22.10
2015,06,16,15,52,22.00
2015,06,16,15,53,21.90
2015,06,16,15,54,21.80
2015,06,16,15,55,21.80
2015,06,16,15,56,21.90
2015,06,16,15,57,22.00
2015,06,16,15,58,22.10
2015,06,16,15,59,22.10
2015,06,16,16,00,22.20
2015,06,16,16,01,22.20
2015,06,16,16,02,22.20
2015,06,16,16,03,22.10
2015,06,16,16,04,22.20
2015,06,16,16,05,22.20
2015,06,16,16,06,22.20
2015,06,16,16,07,22.20
2015,06,16,16,08,22.20
2015,06,16,16,09,22.20
2015,06,16,16,10,22.30
2015,06,16,16,11,22.30
2015,06,16,16,12,22.20
2015,06,16,16,13,22.10
2015,06,16,16,14,22.10
2015,06,16,16,15,22.00
2015,06,16,16,16,22.00
2015,06,16,16,17,22.10
2015,06,16,16,18,22.20
2015,06,16,16,19,22.30
2015,06,16,16,20,22.40
2015,06,16,16,21,22.40
2015,06,16,16,22,22.40
2015,06,16,16,23,22.30
2015,06,16,16,24,22.30
2015,06,16,16,25,22.30
2015,06,16,16,26,22.30
2015,06,16,16,27,22.30
2015,06,16,16,28,22.20
2015,06,16,16,29,22.20
2015,06,16,16,30,22.10
2015,06,16,16,31,22.20
2015,06,16,16,32,22.30
2015,06,16,16,33,22.30
2015,06,16,16,34,22.40
2015,06,16,16,35,22.30
2015,06,16,16,36,22.30
2015,06,16,16,37,22.30
2015,06,16,16,38,22.20
2015,06,16,16,39,22.20
2015,06,16,16,40,22.20
2015,06,16,16,41,22.30
2015,06,16,16,42,22.30
2015,06,16,16,43,22.40
2015,06,16,16,44,22.60
2015,06,16,16,45,22.70
2015,06,16,16,46,22.70
2015,06,16,16,47,22.60
2015,06,16,16,48,22.50
2015,06,16,16,49,22.40
2015,06,16,16,50,22.30
2015,06,16,16,51,22.20
2015,06,16,16,52,22.10
2015,06,16,16,53,22.00
2015,06,16,16,54,21.90
2015,06,16,16,55,21.90
2015,06,16,16,56,21.90
2015,06,16,16,57,21.90
2015,06,16,16,58,21.90
2015,06,16,16,59,22.00
2015,06,16,17,00,22.00
2015,06,16,17,01,22.10
2015,06,16,17,02,22.10
2015,06,16,17,03,22.00
2015,06,16,17,04,22.00
2015,06,16,17,05,22.00
2015,06,16,17,06,22.00
2015,06,16,17,07,22.00
2015,06,16,17,08,22.10
2015,06,16,17,09,22.20
2015,06,16,17,10,22.20
2015,06,16,17,11,22.30
2015,06,16,17,12,22.40
2015,06,16,17,13,22.50
2015,06,16,17,14,22.60
2015,06,16,17,15,22.60
2015,06,16,17,16,22.70
2015,06,16,17,17,22.70
2015,06,16,17,18,22.70
2015,06,16,17,19,22.70